This is the latest recevied weather packets stored in our database for station/object K0APR. If no packets are shown the sender has not sent any weather packets the latest 10 day(s).
| Time | Temp. | Humidity | Pressure | Rain* | Wind** | Luminosity | Snow |
|---|---|---|---|---|---|---|---|
| 1777789030 | 14.44° C | 45% | 1006.4 hPa | 0 mm | - | 0 W/m² | - |
| 1777788727 | 14.44° C | 44% | 1006.4 hPa | 0 mm | - | 0 W/m² | - |
| 1777788423 | 15° C | 43% | 1006.4 hPa | 0 mm | - | 0 W/m² | - |
| 1777788117 | 15° C | 42% | 1006.4 hPa | 0 mm | - | 0 W/m² | - |
| 1777787813 | 15° C | 41% | 1006.4 hPa | 0 mm | - | 0 W/m² | - |
| 1777787509 | 15° C | 40% | 1006.4 hPa | 0 mm | - | 0 W/m² | - |
| 1777787204 | 15.56° C | 39% | 1006.4 hPa | 0 mm | - | 0 W/m² | - |
| 1777786901 | 15.56° C | 38% | 1006.7 hPa | 0 mm | - | 0 W/m² | - |
| 1777786599 | 15.56° C | 37% | 1006.7 hPa | 0 mm | - | 0 W/m² | - |
| 1777786298 | 15.56° C | 36% | 1006.7 hPa | 0 mm | - | 0 W/m² | - |
| 1777785993 | 15.56° C | 36% | 1006.7 hPa | 0 mm | - | 0 W/m² | - |
| 1777785690 | 15.56° C | 35% | 1006.7 hPa | 0 mm | - | 0 W/m² | - |
| 1777785385 | 15.56° C | 35% | 1006.7 hPa | 0 mm | - | 0 W/m² | - |
| 1777785083 | 15.56° C | 36% | 1006.7 hPa | 0 mm | - | 0 W/m² | - |
| 1777784780 | 16.11° C | 35% | 1006.7 hPa | 0 mm | - | 0 W/m² | - |
| 1777784476 | 16.11° C | 35% | 1006.4 hPa | 0 mm | - | 0 W/m² | - |
| 1777784174 | 16.67° C | 34% | 1006.7 hPa | 0 mm | - | 0 W/m² | - |
| 1777783871 | 16.67° C | 34% | 1006.4 hPa | 0 mm | - | 0 W/m² | - |
| 1777783567 | 16.67° C | 33% | 1007 hPa | 0 mm | - | 0 W/m² | - |
| 1777783265 | 15.56° C | 35% | 1007 hPa | 0 mm | - | 0 W/m² | - |
| 1777782961 | 15° C | 39% | 1006.7 hPa | 0 mm | - | 0 W/m² | - |
| 1777782658 | 15.56° C | 38% | 1007 hPa | 0 mm | - | 0 W/m² | - |
| 1777782355 | 15° C | 38% | 1007 hPa | 0 mm | - | 0 W/m² | - |
| 1777782051 | 15° C | 39% | 1007 hPa | 0 mm | - | 0 W/m² | - |
| 1777781748 | 15.56° C | 39% | 1007.4 hPa | 0 mm | - | 0 W/m² | - |
* Rain latest hour (hover to see other rain measurements)
** Current wind speed in m/s (hover to see current wind gust speed)